Flag for Japan Weather past 2 weeks in Yokohama, Japan

Now
37 °F

Light rain. Partly cloudy.


Feels Like: 30 °F
Forecast: 38 / 44 °F
Wind: 12 mph from North

Location: Tokyo International Airport

Current Time: Jan 30, 2015 at 5:53:52 AM

Latest Report: Jan 30, 2015 at 5:30 AM


Visibility: 5 mi

Pressure: 30.21 "Hg

Humidity: 87%

Dew point: 34 °F

Location of YokohamaLocation

Historic Weather in Yokohama — Graph

°F

Yokohama temperature yesterday

Maximum temperature yesterday: 43 °F (at 12:30 PM)
Minimum temperature yesterday: 34 °F (at 6:30 AM)
Average temperature yesterday: 40 °F

Past Weeks' High & Low Weather Summary

 TemperatureHumidityPressure
High57 °F (Jan 26, 7:30 PM)94% (Jan 16, 11:30 PM)30.42 "Hg (Jan 16, 11:30 PM)
Low34 °F (Jan 19, 5:00 AM)21% (Jan 18, 11:00 AM)29.50 "Hg (Jan 23, 1:00 AM)
Average44 °F60%30.01 "Hg
* Reported Jan 15 4:00 AM — Jan 30 4:30 AM, Yokohama, Weather by CustomWeather, © 2014

Note: Actual official high and low records may vary slightly from our data, if they occured in-between our weather recording intervals... More about our weather records

Advertising

Yokohama weather history for previous 24 hours

 ConditionsComfort  
Time TempWeatherWind HumidityBarometerVisibility
4:30 AM
Jan 30
37 °FLight rain. Passing clouds.13 mph87%30.21 "Hg5 mi
4:00 AM39 °FLight rain. Passing clouds.13 mph81%30.21 "HgN/A
3:30 AM39 °FLight rain. Partly cloudy.13 mph75%30.21 "HgN/A
3:00 AM41 °FLight rain. Passing clouds.14 mph66%30.21 "HgN/A
2:30 AM41 °FLight rain. Passing clouds.8 mph61%30.24 "HgN/A
2:00 AM41 °FPassing clouds.8 mph61%30.24 "HgN/A
1:30 AM41 °FPassing clouds.7 mph57%30.24 "HgN/A
1:00 AM41 °FPartly cloudy.6 mph61%30.24 "HgN/A
12:30 AM41 °FPartly cloudy.8 mph66%30.24 "HgN/A
12:00 AM41 °FPassing clouds.9 mph66%30.24 "HgN/A
11:30 PM
Jan 29
41 °FPassing clouds.10 mph66%30.27 "HgN/A
11:00 PM43 °FPassing clouds.8 mph66%30.27 "HgN/A
10:30 PM43 °FPartly cloudy.9 mph66%30.30 "HgN/A
10:00 PM43 °FPartly cloudy.12 mph66%30.30 "HgN/A
9:30 PM43 °FPassing clouds.12 mph61%30.30 "HgN/A
9:00 PM43 °FPassing clouds.12 mph66%30.30 "HgN/A
8:30 PM43 °FPartly cloudy.10 mph57%30.33 "HgN/A
8:00 PM43 °FPartly cloudy.14 mph57%30.33 "HgN/A
7:30 PM43 °FPartly cloudy.14 mph61%30.30 "HgN/A
7:00 PM43 °FPartly cloudy.16 mph61%30.30 "HgN/A
6:30 PM43 °FPartly cloudy.18 mph61%30.27 "HgN/A
6:00 PM43 °FPartly cloudy.6 mph49%30.30 "HgN/A
5:30 PM43 °FPassing clouds.5 mph46%30.30 "HgN/A
5:00 PM43 °FBroken clouds.3 mph42%30.30 "HgN/A
4:30 PM43 °FPartly sunny.1 mph34%30.30 "HgN/A
4:00 PM43 °FPartly sunny.1 mph36%30.27 "HgN/A
3:30 PM43 °FPartly sunny.2 mph34%30.27 "HgN/A
3:00 PM43 °FPartly sunny.6 mph36%30.27 "HgN/A
2:30 PM43 °FPartly sunny.6 mph34%30.27 "HgN/A
2:00 PM43 °FPartly sunny.9 mph36%30.27 "HgN/A
1:30 PM41 °FScattered clouds.10 mph45%30.27 "HgN/A
1:00 PM43 °FPassing clouds.9 mph36%30.27 "HgN/A
12:30 PM43 °FPassing clouds.8 mph39%30.27 "HgN/A
12:00 PM41 °FPassing clouds.8 mph39%30.30 "HgN/A
11:30 AM41 °FPassing clouds.8 mph36%30.30 "HgN/A
11:00 AM41 °FPassing clouds.3 mph36%30.33 "HgN/A
10:30 AM39 °FPassing clouds.8 mph36%30.33 "HgN/A
10:00 AM39 °FPassing clouds.10 mph39%30.36 "HgN/A
9:30 AM39 °FPassing clouds.12 mph39%30.36 "HgN/A
9:00 AM39 °FPassing clouds.10 mph42%30.36 "HgN/A
8:30 AM37 °FPassing clouds.13 mph38%30.36 "HgN/A
8:00 AM37 °FPassing clouds.13 mph45%30.36 "HgN/A
7:30 AM36 °FPassing clouds.12 mph44%30.33 "HgN/A
7:00 AM36 °FPassing clouds.12 mph52%30.33 "HgN/A
6:30 AM34 °FPassing clouds.12 mph51%30.30 "HgN/A
6:00 AM36 °FPassing clouds.12 mph52%30.30 "HgN/A
5:30 AM36 °FPassing clouds.13 mph48%30.27 "HgN/A
5:00 AM36 °FPassing clouds.12 mph48%30.27 "HgN/A
Weather by CustomWeather, © 2014

See weather overviewHow to use our weather pages